www.pogodaiklimat.ru

Погода и климат >> Архив погоды >> Марокко >> Агадир


ПОГОДА в Агадире

  • Прогноз погоды в Агадире
  • Монитор погоды в Агадире

АРХИВ ПОГОДЫ в Агадире

Время (UTC), дата Ветер
(напр.,м/с)
 
Видим.   Явления Облачность Т
(С)
Тd
(С)
f
(%)
Тe
(С)
Тes
(С)
Комфортность P
(гПа)
Po
(гПа)
Тmin
(С)
Tmax
(С)
R
(мм)
R24
(мм)
S
(см)
18 16.08 ЮЗ 11 10 км 3/0
[Ci sp]
+29.6 +16.7 46 +33 +33 душно 1008.1 998.8 +36.9
21 16.08 З 8 10 км 3/0
[Ci sp]
+22.9 +17.2 70 +28 +28 душно 1009.8 1000.5
00 17.08 штиль 0 10 км ясно +22.2 +17.0 72 +27 +27 душно 1010.0 1000.7
03 17.08 В 7 10 км ясно +23.8 +16.8 65 +27 +27 жарко 1008.6 999.4
06 17.08 С 3 10 км ясно +20.8 +16.5 76 +25 +25 комфорт 1008.9 999.7 +20.8
09 17.08 ЮЗ 6 10 км 4/0
[Ac trans]
+25.5 +17.9 63 +30 +32 душно 1010.3 1001.1
12 17.08 З 12 10 км ясно +34.4 +17.8 37 +38 +38 очень
душно
1009.8 1000.5
15 17.08 З 13 10 км ясно +36.9 +14.7 27 +38 +38 очень
душно
1008.1 998.8
18 17.08 ЮЗ 11 10 км 4/0
[Ac trans]
+33.6 +14.8 32 +35 +35 душно 1007.5 998.3 +38.7
21 17.08 ЮЗ 7 10 км 1/0
[Ac trans]
+26.8 +15.3 49 +30 +30 душно 1010.1 1000.8
00 18.08 ЮЗ 3 10 км 1/0
[Ac trans]
+21.5 +17.1 76 +25 +25 комфорт 1011.0 1001.7
03 18.08 СВ 3 10 км ясно +18.7 +15.8 83 +20 +20 1010.7 1001.5
06 18.08 В 4 10 км ясно +18.8 +15.3 80 +20 +20 1011.1 1001.8 +18.3
09 18.08 С 4 10 км 3/0
[Ac trans]
+29.5 +13.7 38 +31 +36 жарко 1011.9 1002.6
12 18.08 З 11 10 км ясно +34.0 +16.9 36 +37 +37 очень
душно
1012.1 1002.8
15 18.08 З 12 10 км ясно +37.8 +12.6 22 +37 +37 очень
жарко
1010.7 1001.3
18 18.08 З 14 10 км 3/0
[Ac trans]
+36.7 +8.2 18 +35 +35 очень
жарко
1009.8 1000.5 +40.1
21 18.08 ЮЗ 11 10 км ясно +25.2 +15.2 54 +28 +28 жарко 1011.7 1002.5
00 19.08 З 4 10 км ясно +20.8 +16.0 74 +24 +24 комфорт 1013.0 1003.7
03 19.08 СВ 6 10 км ясно +19.5 +15.3 77 +21 +21 комфорт 1012.0 1002.7
06 19.08 СВ 4 10 км ясно +18.2 +14.1 77 +18 +18 1011.6 1002.4 +18.2
09 19.08 З 7 10 км ясно +24.8 +16.9 61 +28 +31 жарко 1013.1 1003.7
12 19.08 З 11 10 км ясно +33.0 +16.7 38 +36 +36 очень
душно
1012.7 1003.5
15 19.08 ЮЗ 13 10 км ясно +34.4 +11.2 24 +34 +34 очень
жарко
1011.6 1002.3
18 19.08 ЮЗ 15 10 км 3/0
[Ac trans]
+28.4 +15.9 47 +32 +32 душно 1011.2 1001.8 +35.0
21 19.08 ЮЗ 6 10 км ясно +20.7 +17.2 80 +24 +24 комфорт 1013.3 1004.0
00 20.08 Ю 5 10 км 10/10 300 м
[Sc]
+20.0 +17.7 87 +23 +23 комфорт 1014.1 1004.7
03 20.08 Ю 4 10 км 10/10 300 м
[Sc]
+19.5 +17.5 88 +22 +22 комфорт 1012.9 1003.6
06 20.08 штиль 0 8000 м 10/10 180 м
[St]
+19.0 +17.4 90 +20 +20 1012.7 1003.4 +19.0
09 20.08 З 5 8000 м 10/10 180 м
[St]
+21.5 +17.6 78 +26 +26 душно 1013.4 1004.2
12 20.08 З 11 10 км ясно +28.0 +17.5 53 +32 +32 душно 1013.0 1003.7
15 20.08 З 13 10 км ясно +27.7 +16.7 51 +31 +31 душно 1011.8 1002.5
18 20.08 ЮЗ 7 10 км ясно +26.0 +16.4 55 +29 +30 душно 1011.6 1002.4 +29.6
21 20.08 Ю 4 10 км ясно +20.2 +15.7 75 +23 +23 комфорт 1013.7 1004.5
00 21.08 штиль 0 10 км ясно +18.9 +16.0 83 +20 +20 1013.8 1004.5
03 21.08 штиль 0 10 км 3/3 240 м
[St]
+17.2 +15.2 88 +17 +17 1012.6 1003.3
06 21.08 З 4 8000 м 10/10 90 м
[St]
+18.0 +16.8 93 +18 +18 1012.7 1003.4 +16.6
09 21.08 штиль 0 7000 м 6/6 180 м
[St]
+19.2 +17.5 90 +21 +25 комфорт 1013.3 1004.0
12 21.08 З 10 10 км ясно +28.3 +17.6 52 +32 +33 душно 1012.1 1002.8
15 21.08 З 11 10 км ясно +28.0 +16.3 49 +31 +32 душно 1010.6 1001.3
18 21.08 З 7 10 км ясно +26.8 +16.2 52 +30 +30 душно 1010.1 1000.9 +28.6
21 21.08 штиль 0 10 км ясно +22.5 +16.2 68 +27 +27 душно 1011.3 1002.0
00 22.08 штиль 0 10 км ясно +19.8 +14.0 69 +21 +21 комфорт 1010.5 1001.2
03 22.08 З 8 10 км ясно +19.5 +17.4 88 +21 +21 комфорт 1009.4 1000.1
06 22.08 З 5 6000 м 10/10 90 м
[St]
+18.7 +17.6 93 +20 +20 1010.0 1000.8 +18.6
09 22.08 З 4 10 км 5/0
[Ac trans]
+23.9 +17.9 69 +28 +32 душно 1011.2 1001.9
12 22.08 З 7 10 км 4/0
[Ac trans]
+28.0 +18.3 56 +33 +37 очень
душно
1010.4 1001.1
15 22.08 З 13 10 км 4/0
[Ac trans]
+29.7 +16.9 46 +33 +33 душно 1008.8 999.6
18 22.08 З 10 10 км 6/0
[Ac cast]
+26.2 +16.7 56 +30 +30 душно 1009.0 999.7 +33.4
21 22.08 С 7 10 км 5/0
[Ac trans]
+22.9 +17.2 70 +28 +28 душно 1010.9 1001.6
00 23.08 СЗ 5 10 км ясно +23.8 +16.0 62 +27 +27 жарко 1009.7 1000.4
03 23.08 ЮЗ 4 10 км ясно +25.1 +16.2 58 +28 +28 жарко 1009.6 1000.4
06 23.08 З 5 10 км 6/4 1200 м
[Cu med, cong Ac trans]
+21.6 +17.8 79 +26 +26 душно 1010.2 1000.8 +21.6
09 23.08 З 5 10 км 6/4 1200 м
[Cu med, cong Ac trans]
+23.6 +18.9 75 +28 +30 душно 1012.1 1002.8
12 23.08 З 10 10 км 4/0
[Ac trans]
+33.0 +18.8 43 +38 +39 очень
душно
1011.0 1001.7
15 23.08 З 14 10 км 5/4 1200 м
[Cu med, cong Ac trans]
+33.1 +17.0 38 +36 +36 очень
душно
1009.1 999.9

 

Местоположение метеостанции Агадир (Марокко): широта 30.32 долгота -9.40 высота над уровнем моря 23 м.

В архиве по умолчанию представлена погода в Агадире за последнюю неделю. Архивные данные за месяц целиком и за предыдущие месяцы, начиная с января 2011 года, Вы можете получить, выбрав интересующий диапазон дат из раскрывающегося списка и нажав кнопку "Ввод!".


*Определитесь, кто Вы:
робот инопланетянин человек

Внимание! Время в таблицах - всемирное. Для получения местного времени необходимо прибавить поправку, которая равна 0 ч.

Смотрите также архив погоды в соседних городах и на ближайших метеорологических станциях:

Погода в Агадире (Марокко) (18 км)
Погода в Таруданте (Марокко) (59 км)
Погода в Тизните (Марокко) (78 км)
Погода в Аэропорту Эс-Сувейра-Могадор (Марокко) (123 км)
Погода в Сиди-Ифни (Марокко) (130 км)
Погода в Эс-Сувейре (Марокко) (138 км)
Погода в Гулимине (Марокко) (158 км)
Погода в Марракеше (Марокко) (195 км)
Погода в Сафи (Марокко) (219 км)
Погода в Варзазате (Марокко) (249 км)

Пояснения к столбцам:

Ветер - указаны скорость ветра в м/с - средняя за 10 мин, порывы в срок и между сроками (в фигурных скобках) и направление, откуда дует ветер: С - северный, СВ - северо-восточный, В - восточный, ЮВ - юго-восточный, Ю - южный, ЮЗ - юго-западный, З - западный, СЗ - северо-западный.
Видимость - горизонтальная дальность видимости в метрах или километрах. При видимости от 1 до 10 км при отсутствии осадков обычно наблюдается дымка, при ухудшении видимости до 1 км и менее - туман. В сухую погоду видимость может ухудшаться дымом, пылью или мглою.
Явления - указаны атмосферные явления, наблюдавшиеся в срок или в последний час перед сроком; фигурными скобками обозначены явления, наблюдавшиеся между сроками (за 1-3 часа до срока); квадратными скобками обозначены град или гололедные отложения с указанием их диаметра в мм.
Облачность - указаны через наклонную черту общая и нижняя облачность в баллах и высота нижней границы облаков в метрах; квадратными скобками обозначены формы облаков: Ci - перистые, Cs - перисто-слоистые, Cc - перисто-кучевые, Ac - высококучевые, As - высокослоистые, Sc - слоисто-кучевые, Ns - слоисто-дождевые, Cu - кучевые, Cb - кучево-дождевые. Подробнее классификацию облаков см. в Атласе облаков (PDF).
T - Температура воздуха - температура, измеренная на высоте 2 м над землей.
Td - Температура точки росы - температура, при понижении до которой содержащийся в воздухе водяной пар достигнет насыщения.
f - Относительная влажность воздуха - влажноcть воздуха, измеренная на высоте 2 м над землей.
Te - Эффективная температура - температура, которую ощущает одетый по сезону человек в тени. Характеристика душности погоды. При расчете учитывается влияние влажности воздуха и скорости ветра на теплоощущения человека.
Tes - Эффективная температура на солнце - температура, которую ощущает человек, с поправкой на солнечный нагрев. Характеристика знойности погоды. Зависит от высоты солнца над горизонтом, облачности и скорости ветра. Ночью, в пасмурную погоду, а также при ветре 12 м/с и более поправка равна нулю.
P - Атмосферное давление - приведенное к уровню моря атмосферное давление.
Po - Атмосферное давление - измеренное на уровне метеостанции атмосферное давление.
Tmin - Минимальная температура - минимум температуры воздуха на высоте 2 м над землей.
Tmax - Максимальная температура - максимум температуры воздуха на высоте 2 м над землей.
R - Количество осадков - Количество выпавших осадков за период времени, мм. При наведении курсора мыши на число - период времени, за который выпало указанное количество осадков.
R24 - Количество осадков - Количество выпавших осадков за 24 часа, мм.
S - Снежный покров - Высота снежного покрова, см. При наведении курсора мыши на число - состояние снежного покрова и степень покрытия местности в баллах.